Location: Boone Canyon
(38.3180°N, 119.2504°W)
Time: 17:39:13
(UTC+00:00)

ALOS - Pass Details

Date: 18 September 2020
Orbit: 683 x 686 km, 97.9° (Epoch: 20 October)

Event Time Altitude Azimuth Distance (km) Brightness Sun altitude
Rises 12:55:57 0° 7° (N) 3,054 5.9 -9.8°
Reaches altitude 10° 12:58:14 10° 4° (N) 2,134 5.0 -9.3°
Maximum altitude 13:02:49 58° 286° (WNW) 794 2.3 -8.4°
Drops below altitude 10° 13:07:21 10° 207° (SSW) 2,119 4.5 -7.6°
Sets 13:09:36 0° 204° (SSW) 3,030 5.3 -7.1°
